Regional Weather Roundup
Issued by NWS Boston, MA

Current Version | Previous Version | Text Only | Print | Product List | Glossary Off
Versions: 1 2 3 4 5 6 7 8 9 10 11 12 13 14 15 16 17 18 19 20 21 22 23 24 25 26 27 28 29 30 31 32 33 34 35 36 37 38 39 40 41 42 43 44 45 46 47 48 49 50

092
ASUS41 KBOX 211310
RWRBOX

REGIONAL WEATHER ROUNDUP
NATIONAL WEATHER SERVICE TAUNTON MA
800 AM EST SAT JAN 21 2017

NOTE:  "FAIR" INDICATES FEW OR NO CLOUDS BELOW 12,000 FEET WITH NO
SIGNIFICANT WEATHER AND/OR OBSTRUCTIONS TO VISIBILITY.

MAZALL-211400-
EASTERN MASSACHUSETTS

CITY           SKY/WX    TMP DP  RH WIND       PRES   REMARKS
BOSTON         CLOUDY    40  38  93 SW12      29.85S
BEVERLY        CLOUDY    39  38  96 SW7       29.83F FOG
LAWRENCE       CLOUDY    36  36 100 SW5       29.85S FOG
BEDFORD        CLOUDY    38  34  85 SW5       29.83S
BLUE HILL        N/A     37  36  96 SW12      29.82S WCI  29
NORWOOD        CLOUDY    41  38  89 SW7       29.85S
MARSHFIELD     CLOUDY    43  39  87 SW7       29.85R
PLYMOUTH       CLOUDY    40  39  97 SW7       29.85F
TAUNTON        CLOUDY    42  39  89 SW5       29.86S
NEW BEDFORD    CLOUDY    43  41  93 SW3       29.86S FOG
$$

MAZALL-211400-
CAPE COD AND THE ISLANDS

CITY           SKY/WX    TMP DP  RH WIND       PRES   REMARKS
FALMOUTH       FOG       41  39  93 MISG      29.87S VSB 3/4
HYANNIS        CLOUDY    41  38  89 S7        29.85S FOG
CHATHAM        CLOUDY    43  38  82 S6        29.87F
PROVINCETOWN   CLOUDY    41  38  89 S13       29.86S
NANTUCKET      CLOUDY    42  39  89 S6        29.88S FOG
MARTHAS VNYRD  FOG       43  41  93 SW3       29.87S VSB 1
$$

MAZALL-211400-
CENTRAL AND WESTERN MASSACHUSETTS

CITY           SKY/WX    TMP DP  RH WIND       PRES   REMARKS
WORCESTER      FOG       35  34  96 SW8       29.82S VSB 1/4 WCI  29
FITCHBURG      CLOUDY    37  36  96 CALM      29.83S FOG
ORANGE         FOG       35  35 100 SW7       29.84S VSB 1/2 WCI  29
SPRINGFIELD    FOG       38  37  97 S3        29.84S VSB 1
WESTFIELD      FOG       37  37 100 CALM      29.85R VSB 1/4
NORTH ADAMS    CLOUDY    36  34  92 CALM      29.84R FOG
PITTSFIELD     CLOUDY    35  34  96 CALM      29.81S FOG
$$

RIZALL-211400-
RHODE ISLAND

CITY           SKY/WX    TMP DP  RH WIND       PRES   REMARKS
PROVIDENCE     CLOUDY    42  38  85 W5        29.87S
NEWPORT        CLOUDY    43  42  97 W3        29.87R FOG
SMITHFIELD     CLOUDY    40  38  93 W6        29.85S
WESTERLY       CLOUDY    43  39  86 W6        29.89R FOG
$$

CTZALL-211400-
CONNECTICUT

CITY           SKY/WX    TMP DP  RH WIND       PRES   REMARKS
BRADLEY INTL   MOCLDY    37  37 100 SE5       29.86R FOG
HARTFORD       CLOUDY    40  39  97 SW5       29.87S FOG
BRIDGEPORT     CLOUDY    42  39  89 SW3       29.88S FOG
DANBURY        CLOUDY    39  38  96 CALM      29.87S FOG
GROTON         CLOUDY    42  40  92 W7        29.88R FOG
NEW HAVEN      CLOUDY    40  39  97 SW6       29.88S FOG
CHESTER        FOG       39  39 100 CALM      29.86F VSB 1/4
MERIDEN        CLOUDY    41  38  89 S5        29.87S FOG
WILLIMANTIC    CLOUDY    40  38  93 E3        29.86F FOG
OXFORD         FOG       39  36  87 CALM      29.87S VSB 1/8
$$

MEZ002-015-021-024-NHZ003-005-008-011-012-014-VTZ005-008-211400-
NORTHERN NEW ENGLAND

CITY           SKY/WX    TMP DP  RH WIND       PRES   REMARKS
PORTLAND ME    CLOUDY    36  31  82 CALM      29.82F
BANGOR ME      CLOUDY    32  30  92 CALM      29.82F
CONCORD NH     CLOUDY    34  31  88 CALM      29.83S
MANCHESTER NH  NOT AVBL
NASHUA NH      NOT AVBL
PORTSMOUTH NH  FOG       36  34  95 CALM      29.82S VSB 1/8
JAFFREY NH     NOT AVBL
KEENE NH       NOT AVBL
BURLINGTON VT  LGT RAIN  38  36  92 S5        29.80S FOG
MT. WASHINGTON BLWGSNOW  27  27 100 W56         N/A  VSB 3/16WCI   6
$$

NYZ052-076-211400-
EASTERN NEW YORK

CITY           SKY/WX    TMP DP  RH WIND       PRES   REMARKS
ALBANY         CLOUDY    39  36  89 S6        29.85S
NEW YORK CITY  CLOUDY    45  41  86 SW8       29.88S
$$

ANZALL-211400-
MARINE OBSERVATIONS

STATION/POSITION TIME  TEMP    WIND        PRES    VSBY  WAVE
                       AIR SEA DIR/SP/G                  HT/PER
                 (UTC) (F)     (DEG/KT/KT) (MB)    (MI)  (FT/S)
BOSTON BUOY      1150   41 44  160/ 12/ 14 1009.2          3/11
BUZZARDS BAY     1200   42     250/  9/ 10 1012.1R
NANTUCKET SOUND  1150   42 41  170/  8/ 10 1011.6          1/11
MASS BAY-STELLWA 1204   42 44  190/ 12/ 14 1009.5F  1 7/8  5/11
ISLE OF SHOALS   1200   38     210/ 12/ 13 1009.8F
S OF BLOCK IS    1225      47                N/A           3/11
$$

......................KEY.........................
  SKY/WX - SKY CONDITION/PRESENT WEATHER
  TMP    - TEMPERATURE IN FAHRENHEIT
  DWPT   - DEWPOINT IN FAHRENHEIT
  RH     - RELATIVE HUMIDITY IN PERCENT
  WIND   - DIRECTION AND SPEED IN MPH
  PRES   - MEAN SEA LEVEL PRESSURE IN INCHES OF HG
  WCI    - WIND CHILL INDEX
  VSB    - VISIBILITY IN MILES
  HX     - HEAT INDEX
  TC     - TEMPERATURE IN CELSIUS
  VRB    - VARIABLE WIND DIRECTION
  N/A    - NOT AVAILABLE




USA.gov is the U.S. government's official web portal to all federal, state and local government web resources and services.